Change the Weather History Date:

Monday, October 8, 2012

  Actual Average Record
Temperature  
Mean Temperature 46 °F 47 °F  
Max Temperature 63 °F 60 °F 71 °F (2004)
Min Temperature 28 °F 35 °F 25 °F (2000)
Degree Days  
Heating Degree Days 19 18  
Month to date heating degree days 147 133  
Since 1 July heating degree days 317 530  
Cooling Degree Days 0 0  
Month to date cooling degree days 0 0  
Year to date cooling degree days 346 162  
Moisture  
Dew Point 5 °F    
Average Humidity 22    
Maximum Humidity 35    
Minimum Humidity 8    
Precipitation  
Precipitation 0.00 in 0.04 in 0.18 in (2010)
Month to date precipitation 0.00 0.24  
Year to date precipitation 3.44 9.58  
Sea Level Pressure  
Sea Level Pressure 30.00 in    
Wind  
Wind Speed 11 mph (SW)    
Max Wind Speed 21 mph    
Max Gust Speed 30 mph    
Visibility 10 miles    
Events      
T = Trace of Precipitation, MM = Missing Value Source: NWS Daily Summary

Daily Weather History Graph

Daily Weather History Graph

Search for Another Location

Airport or City:

Trip Planner

Search our weather history database for the weather conditions in past years. The results will help you decide how hot, cold, wet, or windy it might be!

Date:

Astronomy

Oct. 08, 2012 Rise Set
Actual Time 7:28 AM MDT 6:53 PM MDT
Civil Twilight 7:01 AM MDT 7:21 PM MDT
Nautical Twilight 6:29 AM MDT 7:52 PM MDT
Astronomical Twilight 5:57 AM MDT 8:24 PM MDT
Moon 12:07 AM MDT (10/8) 2:49 PM MDT (10/8)
Length of Visible Light 12h 19m
Length of Day
11h 24m
Last Quarter, 46% of the Moon is Illuminated
Oct 8
Last Quarter
Oct 15
New
Oct 21
First Quarter
Oct 29
Full
Nov 6
Last Quarter

Hourly Weather History & Observations

Time (MDT) Temp. Windchill Dew Point Humidity Pressure Visibility Wind Dir Wind Speed Gust Speed Precip Events Conditions
12:53 AM 35.1 °F 30.1 °F 6.1 °F 30% 30.08 in 10.0 mi SSW 5.8 mph - N/A   Clear
1:53 AM 34.0 °F 27.2 °F 3.9 °F 28% 30.07 in 10.0 mi SSW 8.1 mph - N/A   Clear
2:53 AM 34.0 °F 28.0 °F 3.9 °F 28% 30.05 in 10.0 mi SSW 6.9 mph - N/A   Clear
3:53 AM 30.0 °F 24.1 °F 3.9 °F 33% 30.03 in 10.0 mi SSW 5.8 mph - N/A   Clear
4:53 AM 30.0 °F 23.2 °F 6.1 °F 36% 30.04 in 10.0 mi SW 6.9 mph - N/A   Clear
5:53 AM 30.9 °F 25.2 °F 5.0 °F 33% 30.04 in 10.0 mi South 5.8 mph - N/A   Clear
6:53 AM 30.9 °F 23.5 °F 5.0 °F 33% 30.06 in 10.0 mi SSW 8.1 mph - N/A   Clear
7:53 AM 30.0 °F 23.2 °F 5.0 °F 35% 30.09 in 10.0 mi SSW 6.9 mph - N/A   Clear
8:53 AM 35.1 °F 28.6 °F 6.1 °F 30% 30.11 in 10.0 mi SSW 8.1 mph - N/A   Clear
9:53 AM 43.0 °F 37.2 °F 6.1 °F 22% 30.06 in 10.0 mi SSW 10.4 mph - N/A   Clear
10:53 AM 50.0 °F - 5.0 °F 16% 30.01 in 10.0 mi SSW 15.0 mph - N/A   Clear
11:53 AM 55.9 °F - 3.0 °F 12% 29.99 in 10.0 mi SW 15.0 mph 23.0 mph N/A   Clear
12:53 PM 59.0 °F - 1.9 °F 10% 29.96 in 10.0 mi WSW 20.7 mph 26.5 mph N/A   Clear
1:53 PM 60.1 °F - 3.0 °F 10% 29.94 in 10.0 mi West 17.3 mph - N/A   Clear
2:53 PM 62.1 °F - 1.9 °F 9% 29.91 in 10.0 mi West 16.1 mph 27.6 mph N/A   Clear
3:53 PM 62.1 °F - 1.9 °F 9% 29.91 in 10.0 mi WSW 21.9 mph 27.6 mph N/A   Clear
4:53 PM 61.0 °F - 1.9 °F 9% 29.91 in 10.0 mi West 20.7 mph 29.9 mph N/A   Clear
6:53 PM 53.1 °F - 1.9 °F 12% 29.96 in 10.0 mi West 12.7 mph - N/A   Clear
7:53 PM 46.9 °F - 5.0 °F 18% 29.99 in 10.0 mi WSW 9.2 mph - N/A   Clear
8:53 PM 46.9 °F - 7.0 °F 20% 29.97 in 10.0 mi SW 9.2 mph - N/A   Clear
9:53 PM 45.0 °F 39.3 °F 8.1 °F 22% 29.94 in 10.0 mi SW 11.5 mph - N/A   Clear
10:53 PM 43.0 °F 36.8 °F 8.1 °F 24% 29.91 in 10.0 mi WSW 11.5 mph - N/A   Clear
11:53 PM 43.0 °F 38.2 °F 9.0 °F 25% 29.89 in 10.0 mi SW 8.1 mph - N/A   Clear